Date,TemperatureHighF,TemperatureAvgF,TemperatureLowF,DewpointHighF,DewpointAvgF,DewpointLowF,HumidityHigh,HumidityAvg,HumidityLow,PressureMaxIn,PressureMinIn,WindSpeedMaxMPH,WindSpeedAvgMPH,GustSpeedMaxMPH,PrecipitationSumIn
2013-1-1,23.6,16.5,7.6,13.7,9.3,3.0,82,74,54,30.33,30.17,16,1,16,0.00
2013-1-2,35.0,23.7,12.9,27.0,17.4,7.3,82,77,69,30.20,30.06,20,2,26,0.00
2013-1-3,31.3,26.9,18.9,26.1,19.9,13.2,81,75,64,30.41,30.20,26,3,26,0.00
2013-1-4,34.1,22.4,15.2,19.3,14.4,10.7,85,72,48,30.35,30.16,18,1,22,0.00
2013-1-5,33.1,25.6,20.2,25.5,18.4,13.3,86,74,57,30.18,30.00,32,3,36,0.00
2013-1-6,37.5,24.6,14.6,23.1,16.7,10.1,85,72,49,30.33,30.13,36,3,38,0.00
2013-1-7,42.8,34.5,27.0,28.2,24.6,21.5,85,67,54,30.14,29.93,38,5,38,0.00
2013-1-8,42.9,32.0,22.1,30.0,25.4,19.1,92,78,58,30.08,29.82,26,2,26,0.00
2013-1-9,47.7,35.0,24.8,33.3,27.1,21.7,89,74,49,30.42,30.08,10,0,12,0.00
2013-1-10,38.9,36.8,33.8,36.5,30.8,25.0,94,79,60,30.31,29.68,26,3,36,0.18
2013-1-11,52.0,43.2,31.6,46.0,39.5,26.4,96,87,68,29.68,29.31,50,6,50,0.00
2013-1-12,31.5,20.0,14.3,26.4,7.8,2.7,81,59,46,30.17,29.62,42,10,62,0.00
2013-1-13,19.9,13.1,8.1,5.6,2.7,0.6,74,63,50,30.35,30.14,26,5,32,0.00
2013-1-14,28.5,16.1,6.3,11.5,6.3,1.7,83,66,43,30.50,30.35,22,1,22,0.00
2013-1-15,35.3,23.2,14.1,19.0,13.0,7.9,78,66,46,30.38,30.08,20,1,24,0.00
2013-1-16,51.4,35.6,22.5,31.8,24.3,15.2,77,64,43,30.16,29.92,32,3,36,0.00
2013-1-17,44.9,34.6,27.2,35.4,28.6,25.2,94,80,55,30.44,30.16,12,0,14,0.00
2013-1-18,53.1,41.1,32.4,31.9,28.9,25.5,85,64,42,30.30,29.88,26,4,26,0.00
2013-1-19,53.6,40.4,31.5,29.9,27.1,17.7,78,61,36,30.25,29.82,44,4,44,0.00
2013-1-20,32.4,19.9,14.6,17.9,7.9,5.0,71,59,48,30.43,30.25,26,4,32,0.00
2013-1-21,17.8,12.8,9.3,10.3,2.7,-7.2,76,64,43,30.49,30.38,28,3,28,0.00
2013-1-22,23.3,16.1,11.2,11.3,6.9,3.4,77,67,58,30.41,30.25,22,2,22,0.00
2013-1-23,31.6,22.0,14.6,17.6,11.7,7.4,78,64,52,30.47,30.16,26,5,32,0.00
2013-1-24,20.2,10.9,2.0,7.8,-1.9,-7.5,69,56,44,30.55,30.20,28,7,28,0.00
2013-1-25,51.4,28.5,17.3,24.9,13.4,3.2,71,54,29,30.23,30.10,16,1,20,0.00
2013-1-26,56.3,37.2,22.5,27.1,21.6,17.6,82,58,25,30.19,29.96,38,5,42,0.00
2013-1-27,43.6,39.8,35.9,42.3,35.5,24.4,95,86,54,29.97,29.61,28,5,28,0.16
2013-1-28,44.9,38.8,32.7,44.1,37.7,31.4,97,96,95,29.81,29.53,26,2,26,0.01
2013-1-29,40.6,33.9,31.5,39.8,31.6,28.8,97,91,82,29.65,29.50,28,6,34,0.07
2013-1-30,31.8,22.3,13.3,30.0,18.4,8.6,94,85,72,29.93,29.60,32,6,32,0.05
2013-1-31,15.9,10.7,3.7,12.0,1.3,-6.6,86,66,50,30.47,29.92,40,8,50,0.00
2013-2-1,29.1,15.5,2.4,17.2,5.5,-6.7,70,64,58,30.48,30.07,34,5,38,0.00
2013-2-2,45.7,32.5,22.4,35.0,24.6,16.6,88,73,52,30.18,30.00,32,2,40,0.00
2013-2-3,43.3,36.0,24.4,30.0,25.3,19.2,85,66,44,30.20,29.80,28,3,32,0.00
2013-2-4,37.5,28.8,23.3,28.4,22.8,19.2,85,78,67,30.00,29.73,28,3,32,0.00
2013-2-5,51.7,37.4,25.7,31.5,25.6,21.8,89,67,34,30.01,29.83,28,3,32,0.00
2013-2-6,58.9,45.1,35.6,40.4,32.5,26.1,79,62,46,30.01,29.74,36,4,40,0.00
2013-2-7,44.1,35.6,29.4,38.0,29.8,23.7,82,79,72,30.20,29.79,28,6,34,0.00
2013-2-8,36.6,30.1,26.0,27.9,24.3,21.0,84,79,69,30.32,30.10,26,4,28,0.00
2013-2-9,51.6,38.5,29.3,38.6,31.4,25.6,88,76,58,30.13,29.61,38,12,44,0.00
2013-2-10,43.9,38.3,32.2,42.0,32.4,21.3,94,80,62,29.75,29.22,50,12,50,0.04
2013-2-11,39.1,33.0,27.3,25.5,21.3,18.8,75,62,49,30.14,29.75,70,10,70,0.00
2013-2-12,48.8,33.5,21.8,22.5,19.3,15.6,87,61,27,30.15,29.89,34,3,34,0.00
2013-2-13,53.5,37.3,23.6,28.8,23.3,19.1,85,60,29,29.91,29.70,32,2,34,0.00
2013-2-14,44.6,39.0,25.7,30.2,26.2,17.8,86,62,35,30.23,29.74,42,8,42,0.00
2013-2-15,33.7,24.3,17.3,24.9,15.6,10.0,85,70,45,30.37,30.23,28,5,32,0.01
2013-2-16,37.5,25.9,13.1,24.4,17.7,9.1,85,72,48,30.35,29.99,34,3,34,0.00
2013-2-17,60.1,39.4,23.8,35.4,26.4,19.4,83,63,30,29.99,29.51,36,6,36,0.00
2013-2-18,47.1,36.2,25.8,32.7,25.9,14.4,87,66,50,30.02,29.44,42,8,42,0.03
2013-2-19,27.5,20.4,12.1,15.5,4.3,-4.2,71,52,26,30.38,30.01,36,9,36,0.00
2013-2-20,23.9,14.4,6.5,10.6,2.9,-1.0,72,60,45,30.39,30.19,24,7,26,0.00
2013-2-21,23.8,21.4,20.0,19.2,12.7,5.5,90,71,45,30.22,29.84,36,8,42,0.25
2013-2-22,21.8,18.8,14.1,18.5,15.3,10.4,90,86,81,30.06,29.83,24,6,24,0.02
2013-2-23,37.6,21.8,7.9,30.4,16.5,4.1,88,80,70,30.05,29.82,22,2,22,0.00
2013-2-24,44.1,32.5,24.5,28.0,24.1,19.7,83,72,47,30.02,29.85,20,1,20,0.00
2013-2-25,34.0,30.0,26.4,27.6,24.6,22.5,87,80,70,30.06,29.88,26,5,26,0.00
2013-2-26,30.1,26.8,23.5,25.9,23.8,21.3,92,88,79,29.92,29.78,24,8,26,0.01
2013-2-27,40.5,31.4,24.5,26.4,23.0,20.1,89,72,49,30.07,29.89,40,12,50,0.00
2013-2-28,33.2,29.5,26.1,25.5,22.5,19.3,81,75,69,30.24,30.07,34,8,34,0.00
2013-3-1,30.4,26.0,23.3,19.6,16.8,14.8,76,68,56,30.35,30.21,28,8,34,0.00
2013-3-2,43.1,27.1,12.6,23.1,16.0,8.7,88,66,36,30.36,30.08,16,1,20,0.00
2013-3-3,45.4,35.1,26.9,32.0,26.2,21.2,82,70,57,30.08,29.68,36,7,36,0.00
2013-3-4,40.6,37.2,32.7,30.7,29.6,26.4,90,74,64,29.98,29.67,26,8,34,0.03
2013-3-5,32.9,28.3,23.6,30.6,16.9,13.2,91,62,49,30.36,29.97,52,12,52,0.00
2013-3-6,39.6,28.2,19.7,21.5,17.4,14.2,81,65,42,30.42,30.20,26,4,26,0.00
2013-3-7,55.1,36.0,23.5,28.8,23.2,18.2,81,63,32,30.22,30.01,36,10,36,0.00
2013-3-8,59.9,43.3,29.7,40.4,31.6,24.4,81,65,46,30.12,29.86,44,10,54,0.02
2013-3-9,57.3,49.5,35.8,52.4,45.1,32.7,92,85,76,29.86,29.44,36,6,40,0.09
2013-3-10,35.8,26.9,20.6,32.9,24.9,18.4,94,92,89,29.97,29.63,48,14,48,0.68
2013-3-11,30.0,22.1,15.1,24.7,18.7,11.7,91,87,78,30.00,29.89,34,7,34,0.01
2013-3-12,34.9,29.8,23.2,25.3,22.7,19.2,90,76,59,30.30,29.97,42,7,42,0.00
2013-3-13,41.9,29.2,16.2,26.5,19.4,12.5,88,68,45,30.44,30.21,22,2,22,0.00
2013-3-14,59.5,44.9,33.5,41.1,31.5,21.2,80,60,43,30.22,30.02,26,4,26,0.00
2013-3-15,67.1,51.4,41.2,45.0,38.5,32.0,82,63,37,30.04,29.63,24,2,26,0.00
2013-3-16,45.4,32.5,27.3,38.9,26.3,21.6,89,78,66,30.16,29.73,34,8,38,0.00
2013-3-17,46.5,33.9,25.0,31.5,24.6,19.7,84,69,52,30.15,29.69,30,8,36,0.00
2013-3-18,41.6,35.9,29.3,34.0,21.0,11.0,93,58,30,30.03,29.66,48,10,60,0.07
2013-3-19,50.4,36.3,26.1,30.9,17.9,12.6,69,49,26,30.27,30.02,28,3,36,0.00
2013-3-20,37.8,27.2,17.3,20.8,9.3,-1.1,71,49,29,30.40,30.09,28,7,34,0.00
2013-3-21,32.5,26.6,20.5,20.3,14.6,9.9,86,61,42,30.10,29.87,32,7,34,0.01
2013-3-22,34.3,30.6,26.7,24.9,19.6,11.4,84,64,46,29.99,29.93,20,3,20,0.00
2013-3-23,37.0,31.7,28.4,29.2,23.8,18.1,91,73,53,30.07,29.97,26,4,28,0.05
2013-3-24,29.4,26.4,23.5,26.5,19.4,14.1,92,76,57,30.11,30.02,42,12,42,0.06
2013-3-25,29.8,26.6,24.5,23.0,19.2,17.1,87,74,60,30.34,30.09,34,10,38,0.00
2013-3-26,41.6,31.5,22.2,21.2,17.4,13.2,75,57,39,30.37,30.20,22,2,22,0.00
2013-3-27,52.6,38.9,27.0,31.2,25.3,19.5,76,59,40,30.22,30.10,36,8,36,0.00
2013-3-28,61.5,45.7,30.7,32.8,29.4,25.3,81,57,27,30.19,30.06,24,3,24,0.00
2013-3-29,70.3,55.2,39.8,40.2,33.7,28.9,81,48,22,30.14,29.93,34,5,38,0.00
2013-3-30,68.3,57.6,50.5,53.4,44.2,31.0,94,65,31,30.00,29.81,42,6,52,0.92
2013-3-31,59.0,51.5,36.0,41.9,32.7,22.8,84,52,27,30.06,29.86,34,6,38,0.03
2013-4-1,42.8,32.6,24.1,31.8,18.7,11.3,90,60,31,30.31,30.02,32,6,38,0.02
2013-4-2,52.9,37.5,23.6,26.0,19.7,13.5,77,51,30,30.30,30.18,20,1,20,0.00
2013-4-3,56.0,42.6,31.8,26.6,23.3,20.4,66,48,29,30.29,30.16,26,5,26,0.00
2013-4-4,63.7,47.9,29.5,36.8,31.0,24.0,84,55,35,30.19,29.98,26,3,28,0.00
2013-4-5,71.1,53.5,35.5,38.7,32.8,29.0,79,49,23,30.08,29.62,50,8,50,0.00
2013-4-6,70.9,61.5,53.5,45.3,40.0,35.4,69,47,28,29.69,29.50,38,8,42,0.00
2013-4-7,76.8,59.5,45.5,52.0,40.6,34.9,90,53,22,29.73,29.50,26,3,36,0.18
2013-4-8,67.3,57.7,47.4,60.2,54.2,45.8,96,88,74,29.60,29.52,32,3,36,0.16
2013-4-9,64.5,49.0,32.8,59.9,46.0,31.0,94,90,85,29.89,29.43,42,10,42,0.17
2013-4-10,35.5,33.4,31.6,34.0,31.9,30.0,95,94,92,29.95,29.79,26,7,34,0.08
2013-4-11,34.9,31.4,28.2,30.3,27.5,25.9,94,86,73,29.81,29.65,40,7,40,0.03
2013-4-12,44.9,36.3,31.0,29.4,26.6,24.0,80,68,52,29.97,29.72,38,10,42,0.27
2013-4-13,57.3,45.5,27.3,39.8,33.2,23.9,88,64,47,30.00,29.55,42,8,48,0.00
2013-4-14,66.8,54.7,44.5,49.4,39.7,28.5,80,60,30,29.59,29.19,48,8,50,0.01
2013-4-15,48.5,41.9,36.0,31.2,25.2,18.7,63,51,43,30.02,29.59,26,6,28,0.00
2013-4-16,50.4,42.2,35.3,32.7,28.0,25.0,75,58,40,30.18,30.01,28,6,34,0.00
2013-4-17,45.8,40.9,36.6,40.0,36.8,31.8,95,86,58,30.08,29.66,40,7,42,0.64
2013-4-18,36.9,33.2,29.8,35.1,29.1,24.2,93,85,66,29.92,29.68,44,14,50,0.37
2013-4-19,48.0,38.0,28.5,26.4,21.2,17.5,79,53,30,30.06,29.88,54,9,54,0.04
2013-4-20,48.5,38.0,26.0,28.9,23.9,21.3,84,59,38,30.21,30.04,40,7,40,0.00
2013-4-21,69.6,56.9,43.8,50.0,37.9,28.6,91,52,30,30.07,29.89,40,8,48,0.09
2013-4-22,52.9,44.8,32.8,50.6,42.8,28.7,96,92,85,30.15,29.86,44,6,44,0.91
2013-4-23,38.2,33.0,29.5,28.7,22.9,18.8,85,67,51,30.24,30.12,36,11,40,0.00
2013-4-24,61.3,40.3,22.9,35.0,23.5,18.6,87,57,21,30.21,29.99,40,5,40,0.00
2013-4-25,71.1,52.2,30.9,38.1,31.6,27.2,87,52,22,30.21,29.93,36,4,36,0.00
2013-4-26,69.9,59.3,50.7,50.0,43.0,35.5,83,56,39,30.10,29.91,38,5,38,0.00
2013-4-27,71.6,56.0,45.7,50.9,46.8,42.7,93,74,39,30.10,29.86,24,1,24,0.00
2013-4-28,82.4,64.9,48.5,55.0,48.6,43.5,92,61,28,29.87,29.57,34,2,34,0.00
2013-4-29,84.7,69.7,56.2,57.2,50.4,41.8,79,53,23,29.67,29.40,22,2,22,0.00
2013-4-30,75.6,70.0,64.0,57.7,49.2,42.3,56,48,40,29.72,29.35,32,6,36,0.00
2013-5-1,64.0,42.9,32.4,44.2,36.7,30.7,95,81,45,30.37,29.71,50,11,50,1.08
2013-5-2,50.8,39.6,32.1,32.6,30.3,26.0,95,72,39,30.52,30.37,40,7,42,0.33
2013-5-3,51.1,41.3,31.3,31.7,27.2,24.5,78,59,37,30.37,29.99,36,7,40,0.00
2013-5-4,42.9,39.9,36.2,38.9,35.0,27.3,92,83,55,30.10,29.92,34,10,48,0.03
2013-5-5,56.7,47.0,41.1,47.0,41.4,37.6,89,81,69,30.13,30.03,24,5,26,0.00
2013-5-6,69.4,56.1,47.0,50.1,46.3,43.6,89,72,46,30.09,29.94,20,2,20,0.00
2013-5-7,73.7,61.9,46.4,56.2,50.3,43.6,93,68,43,29.99,29.83,20,1,24,0.00
2013-5-8,71.1,63.3,57.0,58.3,54.7,50.1,87,74,57,29.86,29.77,22,1,24,0.05
2013-5-9,67.6,60.2,56.6,56.6,55.2,53.2,94,84,62,29.91,29.72,22,3,26,0.04
2013-5-10,71.1,58.4,49.6,53.5,47.3,43.1,88,70,37,30.02,29.90,26,3,26,0.00
2013-5-11,62.9,56.3,48.0,46.0,30.7,17.0,83,42,18,30.18,29.95,42,7,42,0.00
2013-5-12,67.6,49.2,36.3,34.9,27.8,21.1,78,49,18,30.22,30.01,14,1,20,0.00
2013-5-13,85.5,75.8,50.9,54.5,45.6,34.1,67,36,20,30.01,29.73,34,4,34,0.00
2013-5-14,100.2,80.5,61.3,60.2,52.8,43.9,82,45,15,29.73,29.51,26,1,38,0.00
2013-5-15,82.4,72.2,63.2,54.8,47.9,41.5,64,43,24,29.76,29.58,32,3,36,0.00
2013-5-16,87.0,80.3,63.4,62.7,59.8,47.5,87,50,39,29.74,29.62,13,1,13,0.00
2013-5-17,86.3,75.1,62.4,62.5,58.8,55.7,84,59,37,29.76,29.66,12,0,12,0.00
2013-5-18,84.0,78.5,63.1,68.2,65.4,58.0,85,65,55,29.74,29.54,12,2,17,0.00
2013-5-19,80.7,67.9,60.1,69.4,61.0,54.8,95,80,53,29.66,29.35,17,1,17,0.45
2013-5-20,78.3,66.9,56.3,57.2,53.9,47.0,92,66,39,29.56,29.41,18,1,18,0.05
2013-5-21,63.1,59.7,55.1,55.0,48.7,44.5,81,67,55,29.65,29.50,17,2,17,0.00
2013-5-22,61.2,55.5,50.5,50.1,47.6,45.8,87,75,61,29.90,29.65,16,2,16,0.00
2013-5-23,73.3,60.2,52.3,51.5,47.5,42.8,86,66,35,30.12,29.90,14,1,14,0.00
2013-5-24,74.7,63.4,50.4,53.5,48.7,43.5,85,60,42,30.18,29.86,15,2,15,0.00
2013-5-25,82.4,70.1,60.7,68.3,60.7,51.0,95,74,54,30.00,29.78,36,2,36,0.37
2013-5-26,85.3,74.8,68.4,69.3,65.5,62.8,84,73,56,29.86,29.66,36,2,36,0.00
2013-5-27,81.8,69.0,59.8,67.4,62.3,57.7,95,81,52,29.77,29.46,60,6,60,2.78
2013-5-28,83.4,72.3,62.3,65.3,62.5,59.8,94,73,47,29.59,29.45,45,2,45,0.04
2013-5-29,78.1,68.9,62.0,70.5,65.0,60.3,95,88,74,29.57,29.37,57,6,57,1.86
2013-5-30,78.1,64.2,59.3,63.5,59.3,54.6,95,85,57,29.52,29.38,39,2,39,0.30
2013-5-31,80.9,68.5,53.6,56.0,50.7,43.1,92,58,27,29.62,29.50,39,1,39,0.00
2013-6-1,66.4,60.0,55.9,52.6,48.5,45.6,79,66,48,29.95,29.58,54,6,54,0.00
2013-6-2,72.1,59.4,51.7,47.5,44.1,40.6,79,59,33,30.05,29.90,36,2,36,0.00
2013-6-3,76.3,64.4,51.9,54.4,49.3,43.5,83,60,40,29.93,29.69,51,5,51,0.00
2013-6-4,78.8,68.2,60.2,63.8,58.9,53.9,85,73,57,29.86,29.71,39,2,39,0.00
2013-6-5,76.0,65.6,54.1,63.6,53.7,47.3,91,69,38,29.93,29.84,33,3,34,0.42
2013-6-6,74.0,64.1,52.6,55.5,49.6,47.0,89,62,40,29.92,29.85,42,2,43,0.00
2013-6-7,79.6,64.5,48.9,54.0,48.7,44.8,93,60,31,29.94,29.76,33,0,34,0.00
2013-6-8,73.7,64.8,59.3,67.2,56.6,50.2,91,75,59,29.79,29.53,30,1,37,0.39
2013-6-9,75.1,64.3,57.3,60.3,56.6,55.0,93,78,51,29.74,29.62,63,4,64,0.01
2013-6-10,84.5,69.4,53.9,61.7,56.7,51.6,94,67,40,29.78,29.64,36,0,37,0.00
2013-6-11,89.9,78.6,69.4,67.7,63.5,58.3,85,62,38,29.68,29.51,45,1,46,0.00
2013-6-12,90.6,78.0,66.4,71.2,64.4,53.2,92,65,39,29.90,29.48,54,4,55,0.09
2013-6-13,81.8,65.8,57.6,65.3,55.9,48.7,92,72,32,29.99,29.85,30,0,31,0.20
2013-6-14,89.9,75.4,63.2,74.1,63.9,56.5,88,69,38,29.90,29.58,72,3,73,0.01
2013-6-15,82.6,76.2,69.9,68.3,65.5,59.5,84,70,51,29.84,29.66,42,1,43,0.00
2013-6-16,87.4,74.7,66.9,67.9,64.8,57.5,94,75,39,29.87,29.79,36,0,37,0.00
2013-6-17,90.1,80.5,66.8,64.2,57.8,48.9,84,49,28,29.88,29.78,21,0,22,0.00
2013-6-18,84.5,73.3,63.2,62.7,57.6,53.6,84,60,37,29.94,29.83,27,0,28,0.01
2013-6-19,87.4,76.0,65.5,66.9,62.0,58.3,84,63,41,29.87,29.74,36,1,37,0.00
2013-6-20,89.9,79.9,68.8,72.4,67.0,61.4,82,65,53,29.80,29.64,51,3,52,0.00
2013-6-21,94.9,84.8,77.3,71.9,69.8,64.6,75,62,37,29.69,29.60,48,4,49,0.00
2013-6-22,90.3,80.7,71.6,71.6,65.5,57.8,78,61,41,29.85,29.61,72,5,73,0.00
2013-6-23,82.4,75.1,64.5,70.8,66.0,61.0,92,74,56,29.81,29.60,63,3,64,0.29
2013-6-24,86.3,76.1,69.6,73.9,69.4,66.7,92,80,64,29.78,29.58,42,1,46,0.31
2013-6-25,88.4,79.1,71.5,75.1,67.5,61.0,79,68,51,29.63,29.50,42,2,43,0.00
2013-6-26,95.1,82.8,72.1,73.6,65.8,53.0,92,61,27,29.74,29.51,33,0,34,0.00
2013-6-27,85.9,75.4,69.1,70.1,66.2,62.1,93,74,54,29.88,29.73,39,1,40,0.43
2013-6-28,88.2,77.7,67.3,67.3,60.0,49.2,93,59,29,29.87,29.78,42,2,43,0.00
2013-6-29,82.4,74.6,67.3,57.8,55.6,51.5,66,53,36,29.82,29.78,57,5,58,0.00
2013-6-30,78.6,70.0,58.9,59.4,54.8,48.8,89,61,37,29.99,29.82,36,1,37,0.00
2013-7-1,83.6,70.7,53.8,55.6,51.8,45.9,89,55,30,30.08,29.98,33,0,34,0.00
2013-7-2,84.1,71.5,57.8,59.9,55.9,50.5,90,61,33,30.04,29.93,21,0,22,0.00
2013-7-3,85.9,72.1,59.0,62.6,56.8,48.0,93,63,29,29.95,29.82,21,0,22,0.00
2013-7-4,88.2,75.6,62.6,60.2,55.6,49.8,74,52,31,29.86,29.74,39,1,40,0.00
2013-7-5,88.2,77.6,67.6,65.5,60.0,56.8,72,56,41,29.78,29.67,39,2,40,0.00
2013-7-6,87.4,79.5,72.7,68.1,62.4,56.8,68,56,45,29.71,29.63,21,3,37,0.00
2013-7-7,95.6,83.5,74.0,68.4,64.4,60.3,69,54,36,29.73,29.65,39,1,40,0.00
2013-7-8,90.7,82.9,77.9,73.5,69.0,64.4,70,63,49,29.81,29.73,30,1,31,0.00
2013-7-9,99.4,86.9,75.1,72.7,69.3,63.4,87,57,39,29.78,29.68,30,0,31,0.03
2013-7-10,87.4,79.7,72.1,71.9,65.4,59.1,80,63,40,29.94,29.78,30,1,31,0.00
2013-7-11,87.0,77.1,66.8,64.5,61.0,57.9,76,59,40,29.99,29.81,39,2,40,0.00
2013-7-12,93.2,80.9,69.8,71.2,64.9,58.0,69,59,47,29.85,29.74,48,4,49,0.00
2013-7-13,92.9,82.1,74.9,72.8,68.8,65.3,73,65,47,29.82,29.74,39,3,40,0.00
2013-7-14,87.8,78.5,70.9,68.3,62.1,54.0,78,59,35,29.99,29.79,51,4,52,0.00
2013-7-15,88.8,78.3,66.4,67.5,63.2,59.0,80,61,43,30.05,29.96,36,1,37,0.00
2013-7-16,91.4,80.8,69.6,66.7,64.0,59.8,82,59,40,30.11,30.01,27,0,28,0.00
2013-7-17,92.9,82.9,72.3,69.1,66.5,63.8,81,59,41,30.16,30.01,30,0,31,0.00
2013-7-18,94.0,84.2,73.7,70.2,66.7,63.5,78,57,38,30.02,29.78,39,1,40,0.00
2013-7-19,93.2,83.5,74.0,70.5,65.5,57.2,73,56,38,29.80,29.73,30,0,31,0.00
2013-7-20,86.7,78.6,70.4,67.4,62.9,53.8,76,60,35,29.84,29.71,27,1,34,0.00
2013-7-21,91.6,80.2,69.9,70.3,67.3,64.6,86,66,46,29.77,29.62,21,0,22,0.00
2013-7-22,96.3,81.4,70.8,74.3,68.4,61.3,90,68,37,29.67,29.59,30,0,31,0.00
2013-7-23,81.1,74.2,64.5,67.0,63.7,61.6,92,71,58,29.89,29.67,54,2,55,0.43
2013-7-24,87.0,74.0,61.6,64.8,62.0,58.8,92,68,44,29.96,29.84,18,0,19,0.00
2013-7-25,79.2,73.7,69.8,68.7,64.1,60.1,87,72,62,29.92,29.86,21,0,22,0.06
2013-7-26,79.6,72.4,63.9,67.4,58.6,48.9,92,65,35,30.00,29.85,39,2,40,0.00
2013-7-27,75.8,66.4,56.2,52.9,48.8,43.1,84,56,33,30.04,29.90,39,1,40,0.00
2013-7-28,80.0,63.6,51.3,56.5,50.2,46.4,91,65,35,29.97,29.89,18,0,22,0.00
2013-7-29,66.6,63.4,59.6,63.8,59.4,55.2,95,87,68,29.94,29.89,33,2,37,0.60
2013-7-30,79.8,69.6,64.8,68.8,65.1,63.3,96,87,63,29.99,29.90,21,0,22,0.01
2013-7-31,85.7,74.4,64.2,68.3,65.2,62.1,94,75,51,30.03,29.92,21,0,22,0.00
2013-8-1,88.8,74.3,64.2,70.1,65.4,60.3,94,77,42,29.97,29.76,54,1,55,0.83
2013-8-2,83.4,74.5,65.5,68.3,65.8,62.9,93,76,56,29.84,29.66,42,2,43,0.07
2013-8-3,80.3,70.9,63.4,67.0,60.3,57.6,82,70,52,30.04,29.84,27,1,28,0.00
2013-8-4,77.4,69.4,64.2,67.1,60.9,55.8,86,74,68,30.06,29.89,36,2,37,0.00
2013-8-5,87.0,76.3,69.8,73.3,69.6,65.9,92,81,61,29.92,29.69,21,0,22,0.00
2013-8-6,88.8,79.6,70.9,73.8,70.8,65.6,93,76,59,29.78,29.65,21,1,37,0.00
2013-8-7,85.9,76.1,69.9,72.5,64.2,56.2,87,69,37,29.86,29.67,24,0,34,0.00
2013-8-8,79.0,70.9,65.6,66.4,62.7,60.7,86,76,58,29.90,29.82,21,0,22,0.00
2013-8-9,83.0,74.0,66.8,66.9,63.8,55.2,91,72,43,30.01,29.89,30,0,31,0.00
2013-8-10,85.3,73.0,58.8,65.7,60.7,55.4,91,67,47,30.07,29.94,18,0,19,0.00
2013-8-11,88.8,76.0,65.6,69.3,64.1,59.8,84,68,49,29.99,29.85,24,0,25,0.00
2013-8-12,85.1,76.2,66.1,70.6,66.2,59.2,94,73,46,29.94,29.85,30,0,31,0.19
2013-8-13,79.0,71.6,63.5,62.6,58.8,53.6,85,66,45,30.03,29.93,24,0,25,0.00
2013-8-14,77.6,67.8,59.5,63.0,58.0,54.0,84,72,51,30.07,29.94,27,0,28,0.01
2013-8-15,69.9,65.7,61.2,63.6,60.5,58.5,95,84,72,29.99,29.89,30,3,31,0.73
2013-8-16,74.4,67.2,62.0,60.2,58.7,56.4,87,75,57,30.05,29.97,36,2,37,0.00
2013-8-17,80.9,70.5,63.1,59.1,57.6,54.8,80,65,42,30.08,29.99,33,1,34,0.00
2013-8-18,81.8,70.1,56.7,62.4,57.7,53.1,90,67,46,30.03,29.92,24,1,25,0.00
2013-8-19,87.2,75.7,66.8,68.8,64.4,60.6,83,69,50,29.95,29.78,39,1,40,0.00
2013-8-20,89.9,79.1,70.3,70.7,67.4,64.8,84,69,50,29.83,29.76,33,1,34,0.00
2013-8-21,91.4,80.3,70.3,71.6,68.0,65.2,84,67,51,29.86,29.78,36,1,37,0.00
2013-8-22,84.5,77.5,70.6,70.2,67.3,64.4,83,71,59,29.95,29.78,33,2,34,0.00
2013-8-23,89.7,78.9,71.3,71.2,68.4,65.2,90,72,47,29.93,29.81,30,1,31,0.00
2013-8-24,92.1,82.8,76.3,72.8,69.0,66.0,77,64,49,29.90,29.83,48,3,49,0.00
2013-8-25,95.4,83.6,74.7,73.0,69.9,68.2,81,64,44,29.96,29.88,36,2,37,0.00
2013-8-26,96.1,84.4,74.9,72.0,69.4,68.0,81,62,43,29.93,29.79,39,1,40,0.00
2013-8-27,96.1,84.3,74.2,70.9,67.4,64.1,76,58,40,29.82,29.75,36,1,37,0.00
2013-8-28,94.9,82.0,71.1,71.1,64.8,60.9,78,57,36,29.85,29.77,21,0,22,0.00
2013-8-29,96.3,83.7,72.5,73.8,69.5,66.6,88,64,41,29.84,29.74,24,0,25,0.00
2013-8-30,98.7,85.1,73.3,77.3,68.9,64.0,77,60,34,29.75,29.67,21,0,22,0.00
2013-8-31,94.7,82.3,74.4,74.1,70.6,65.5,88,70,41,29.74,29.63,27,0,28,0.00
2013-9-1,85.9,77.9,70.1,70.4,63.1,53.3,87,63,35,29.88,29.60,48,1,49,0.00
2013-9-2,81.2,70.4,60.2,61.0,57.1,52.2,91,65,40,29.99,29.88,27,0,28,0.00
2013-9-3,87.0,71.2,56.7,61.8,57.2,51.8,91,64,41,29.99,29.89,18,0,19,0.00
2013-9-4,85.3,73.8,63.5,64.2,60.1,48.8,81,63,32,30.03,29.90,21,0,22,0.00
2013-9-5,88.4,77.3,69.6,64.0,61.5,58.1,72,59,38,30.05,29.94,21,0,22,0.00
2013-9-6,93.2,81.1,69.8,69.7,64.4,59.0,75,58,44,29.95,29.75,33,1,34,0.00
2013-9-7,94.0,82.5,73.7,72.5,67.7,63.1,81,62,37,29.76,29.70,30,1,37,0.00
2013-9-8,94.0,80.7,70.4,74.6,70.1,67.6,93,73,44,29.76,29.63,24,0,25,0.00
2013-9-9,97.5,84.7,73.5,67.6,61.2,54.3,66,47,26,29.68,29.62,42,1,43,0.00
2013-9-10,96.3,81.8,71.5,71.0,62.5,57.3,92,54,34,29.92,29.68,42,1,43,0.91
2013-9-11,82.2,73.4,69.6,73.5,70.1,67.8,95,90,69,30.00,29.87,24,0,25,0.64
2013-9-12,81.4,72.1,64.5,69.2,59.7,49.1,94,70,34,30.10,29.98,30,1,31,0.09
2013-9-13,77.0,64.6,53.2,53.9,51.0,47.8,92,64,37,30.12,29.97,21,0,22,0.00
2013-9-14,77.7,66.4,55.9,57.7,52.4,47.0,83,62,43,29.98,29.74,33,1,34,0.00
2013-9-15,70.8,66.3,62.4,65.2,59.1,54.4,93,78,63,30.11,29.71,42,1,43,0.20
2013-9-16,62.7,60.1,56.3,55.2,53.0,51.0,89,77,71,30.21,30.09,39,3,40,0.01
2013-9-17,75.6,65.2,58.1,69.6,61.8,55.1,96,89,72,30.10,29.75,39,1,40,0.55
2013-9-18,89.0,77.5,68.4,69.8,66.7,64.4,89,71,49,29.76,29.54,39,3,40,0.00
2013-9-19,86.5,73.7,61.6,66.9,61.3,49.6,91,66,47,29.90,29.56,39,2,40,0.11
2013-9-20,71.6,60.6,49.9,52.2,47.3,42.1,86,64,37,30.01,29.88,48,2,49,0.00
2013-9-21,79.6,61.9,46.8,54.6,49.4,44.6,94,68,37,29.94,29.74,24,0,25,0.00
2013-9-22,82.2,68.5,57.5,54.7,52.1,46.3,83,59,30,29.78,29.66,36,3,37,0.00
2013-9-23,77.9,65.7,55.4,54.2,50.4,48.0,78,59,37,29.71,29.56,54,7,55,0.00
2013-9-24,70.8,64.8,56.5,57.3,55.0,52.2,89,71,61,29.80,29.53,51,3,52,0.00
2013-9-25,79.9,65.5,51.7,60.8,56.3,49.5,95,75,49,29.81,29.61,36,1,37,0.00
2013-9-26,88.0,73.3,63.4,60.3,58.6,56.5,84,63,36,29.64,29.56,51,10,52,0.00
2013-9-27,87.4,76.5,69.6,61.4,59.2,56.9,69,56,38,29.68,29.60,51,6,52,0.00
2013-9-28,75.6,64.3,51.3,63.6,51.6,39.8,90,65,38,29.98,29.52,66,4,67,0.36
2013-9-29,79.0,60.3,46.0,47.7,43.6,39.5,86,60,27,29.98,29.78,30,0,31,0.00
2013-9-30,83.4,65.6,54.2,53.5,49.2,45.3,81,58,31,29.79,29.60,39,2,40,0.00
2013-10-1,80.3,67.9,55.6,55.1,52.1,48.4,86,59,33,29.83,29.65,33,0,34,0.00
2013-10-2,84.9,70.2,58.7,65.0,58.7,50.8,90,69,44,29.83,29.68,39,2,40,0.00
2013-10-3,82.8,70.2,61.0,67.8,62.8,58.4,94,79,55,29.75,29.57,39,2,40,2.14
2013-10-4,84.0,67.5,54.1,69.8,59.8,38.4,94,78,45,29.78,29.47,60,8,61,0.01
2013-10-5,53.8,47.1,42.8,39.4,33.7,31.6,72,60,46,29.87,29.77,63,7,64,0.00
2013-10-6,58.3,47.3,42.6,46.1,38.9,31.3,90,74,40,29.96,29.75,54,5,55,0.03
2013-10-7,76.0,55.1,38.6,46.1,39.0,34.7,92,60,25,30.03,29.91,33,0,34,0.00
2013-10-8,77.9,63.4,53.5,46.7,42.8,39.9,63,48,29,29.91,29.77,45,4,46,0.00
2013-10-9,79.0,65.2,55.3,52.6,48.6,44.6,73,56,37,29.87,29.79,21,4,40,0.00
2013-10-10,80.1,67.1,56.7,57.8,53.9,50.2,82,64,44,29.86,29.65,39,3,40,0.00
2013-10-11,79.2,67.4,56.5,59.0,50.8,38.8,81,59,26,29.80,29.51,63,4,64,0.00
2013-10-12,66.0,54.0,44.5,42.2,37.6,29.1,80,57,27,30.19,29.80,33,2,34,0.00
2013-10-13,69.4,52.7,40.1,40.5,37.2,32.2,91,62,27,30.34,30.19,36,2,37,0.00
2013-10-14,60.1,54.3,46.4,58.1,45.1,34.9,93,73,48,30.19,29.64,48,11,55,0.71
2013-10-15,55.0,48.6,44.5,52.5,39.3,34.0,92,70,59,30.03,29.72,60,10,61,0.01
2013-10-16,56.3,46.6,38.3,39.7,35.5,26.4,84,67,34,30.03,29.91,33,3,34,0.00
2013-10-17,59.8,45.0,35.2,42.2,36.1,32.0,91,72,47,30.00,29.84,54,3,55,0.00
2013-10-18,49.5,41.9,35.8,36.9,31.1,25.6,81,67,41,30.10,29.98,24,0,40,0.00
2013-10-19,62.4,43.9,31.5,40.2,32.5,27.8,92,69,34,29.99,29.75,48,2,49,0.00
2013-10-20,65.0,51.0,41.8,46.6,38.0,35.8,81,63,36,29.94,29.64,48,1,49,0.00
2013-10-21,54.1,42.8,31.8,38.1,34.2,28.4,91,73,47,30.06,29.88,39,1,40,0.00
2013-10-22,52.9,46.3,37.2,43.1,37.6,31.3,85,72,54,30.06,29.81,42,3,43,0.00
2013-10-23,54.7,40.2,31.2,40.0,33.8,27.9,93,79,54,30.15,29.97,33,1,34,0.00
2013-10-24,47.9,40.0,32.5,36.1,28.6,21.3,85,66,36,30.36,30.14,36,2,37,0.00
2013-10-25,58.4,41.8,28.7,33.5,28.0,24.0,84,61,36,30.36,30.02,36,2,37,0.00
2013-10-26,52.0,44.5,33.2,35.2,31.4,25.6,83,61,39,30.17,29.96,42,2,43,0.00
2013-10-27,69.3,46.5,29.7,37.3,30.9,25.8,86,60,28,30.12,29.74,36,1,37,0.00
2013-10-28,53.2,46.2,39.1,39.8,36.1,33.6,81,69,54,30.09,29.83,48,4,49,0.01
2013-10-29,52.5,47.3,43.1,51.1,44.6,38.7,95,90,73,30.08,29.85,30,3,31,0.15
2013-10-30,54.7,48.2,44.5,53.3,46.6,42.1,96,94,90,29.89,29.69,27,1,28,0.03
2013-10-31,57.0,44.9,37.9,44.2,38.4,35.0,94,80,45,29.73,29.45,39,2,40,0.00
2013-11-1,58.6,47.9,39.1,40.9,36.7,32.0,83,67,38,29.95,29.55,63,5,64,0.01
2013-11-2,57.0,45.1,35.6,36.8,32.9,27.4,82,64,33,30.15,29.94,42,3,43,0.00
2013-11-3,57.8,49.3,43.1,38.2,33.1,27.9,64,54,40,30.03,29.65,102,12,103,0.00
2013-11-4,56.2,50.8,41.1,42.2,38.4,34.9,80,63,48,30.07,29.67,45,3,46,0.00
2013-11-5,45.4,41.2,33.8,43.5,37.3,32.3,94,86,75,30.07,29.75,54,4,55,1.21
2013-11-6,43.1,36.2,31.6,33.2,31.0,26.8,93,82,62,30.24,29.97,42,5,43,0.00
2013-11-7,49.5,36.8,28.4,31.2,25.8,17.0,93,69,29,30.37,30.23,42,3,43,0.00
2013-11-8,62.6,48.1,33.2,39.3,31.1,24.6,74,53,32,30.26,29.66,78,6,79,0.00
2013-11-9,61.0,47.4,34.9,38.9,34.2,30.9,89,64,33,30.25,29.83,42,2,43,0.00
2013-11-10,54.2,43.2,30.0,36.5,30.7,25.8,89,63,35,30.35,30.11,33,2,34,0.00
2013-11-11,48.2,37.8,23.5,43.9,29.1,8.8,91,71,47,30.70,30.02,54,7,55,0.00
2013-11-12,33.7,21.9,12.3,11.4,7.8,2.5,78,57,27,30.90,30.65,30,2,31,0.00
2013-11-13,53.9,36.3,25.1,28.6,18.2,9.1,60,48,35,30.65,29.98,54,7,55,0.00
2013-11-14,53.9,43.3,36.8,35.4,27.3,21.2,75,53,41,29.99,29.82,48,3,49,0.00
2013-11-15,56.2,41.1,29.0,41.3,32.3,25.9,90,73,46,29.86,29.56,42,4,43,0.00
2013-11-16,64.5,53.7,44.2,50.9,40.0,26.0,89,64,27,29.56,29.24,57,8,58,0.00
2013-11-17,55.6,49.2,41.5,39.0,32.5,26.5,73,53,40,29.98,29.20,66,6,67,0.00
2013-11-18,57.0,41.2,27.5,33.5,25.9,21.1,86,60,25,30.19,29.98,36,2,37,0.00
2013-11-19,62.6,49.1,37.0,33.7,25.4,21.7,62,41,26,30.12,29.78,75,12,76,0.00
2013-11-20,60.7,51.1,43.9,39.1,32.4,22.5,73,49,32,29.79,29.63,54,10,55,0.00
2013-11-21,43.9,30.3,19.9,36.1,23.6,15.7,87,76,65,30.52,29.80,57,14,58,0.00
2013-11-22,28.8,20.7,14.3,16.7,9.7,3.8,87,64,40,30.72,30.52,48,6,49,0.00
2013-11-23,23.3,19.5,14.4,14.2,6.9,0.3,77,58,40,30.90,30.61,39,5,40,0.00
2013-11-24,31.6,20.2,12.1,10.7,6.0,1.9,70,55,36,30.77,30.23,48,7,49,0.00
2013-11-25,43.3,32.2,25.6,28.3,19.0,8.1,71,58,46,30.23,30.08,42,4,43,0.00
2013-11-26,35.3,28.6,20.0,24.8,15.9,5.0,79,60,37,30.42,30.17,57,8,58,0.00
2013-11-27,33.7,22.2,9.5,15.9,9.8,4.0,82,60,40,30.43,30.03,42,4,43,0.00
2013-11-28,33.7,28.2,21.9,20.1,17.2,13.6,78,64,46,30.47,30.04,39,5,40,0.00
2013-11-29,50.4,31.0,17.8,27.7,19.6,12.7,83,65,38,30.48,30.11,60,6,61,0.00
2013-11-30,58.6,40.6,27.5,31.2,26.1,21.3,80,58,32,30.12,29.98,39,2,40,0.00
2013-12-1,49.8,37.0,26.1,30.4,26.5,21.3,84,67,46,30.12,29.83,18,1,22,0.00
2013-12-2,63.4,45.9,34.6,34.0,31.4,28.6,83,60,31,29.83,29.44,36,1,37,0.00
2013-12-3,46.1,39.8,35.8,33.1,31.6,29.2,83,72,60,29.62,29.39,36,4,37,0.00
2013-12-4,35.8,23.7,15.7,31.5,18.7,5.4,90,81,61,30.05,29.59,66,13,67,0.00
2013-12-5,16.5,12.0,7.2,6.1,-1.2,-6.3,64,55,42,30.46,30.04,57,14,58,0.00
2013-12-6,12.1,6.6,-0.2,-5.8,-7.7,-9.8,64,51,41,30.74,30.46,42,10,43,0.00
2013-12-7,11.6,3.7,-2.8,0.4,-7.3,-10.5,70,60,44,30.80,30.48,27,5,28,0.00
2013-12-8,19.4,13.8,10.7,13.7,8.7,0.4,85,80,61,30.48,30.01,39,5,40,0.05
2013-12-9,12.9,6.0,-2.8,7.5,-1.8,-9.0,84,70,52,30.40,30.17,39,4,40,0.00
2013-12-10,31.8,21.0,10.2,18.3,10.4,0.1,75,63,49,30.27,30.11,39,3,40,0.00
2013-12-11,29.5,14.2,3.2,24.3,3.7,-6.1,81,63,46,30.68,30.16,57,9,58,0.00
2013-12-12,33.5,20.3,8.3,20.5,9.9,-0.7,75,64,50,30.56,30.10,30,3,31,0.00
2013-12-13,30.7,23.9,17.5,23.0,18.3,13.0,86,79,69,30.10,29.84,33,2,34,0.00
2013-12-14,23.6,19.3,14.4,17.8,13.2,8.9,83,77,66,30.24,30.04,42,9,43,0.00
2013-12-15,36.9,25.8,15.2,27.2,20.1,10.7,87,79,61,30.20,29.92,21,0,22,0.00
2013-12-16,49.8,29.7,17.5,32.6,22.6,14.0,89,76,50,30.13,29.94,36,2,37,0.00
2013-12-17,42.3,32.1,25.0,26.7,21.7,14.4,89,69,32,30.29,30.11,36,3,37,0.00
2013-12-18,56.9,41.2,31.0,29.2,24.9,19.9,67,53,32,30.13,29.64,39,5,40,0.00
2013-12-19,36.3,30.9,18.4,26.7,23.7,13.8,84,74,66,29.87,29.67,42,5,43,0.00
2013-12-20,18.4,15.0,11.4,14.3,9.9,6.7,85,80,74,30.02,29.87,48,9,49,0.00
2013-12-21,24.8,20.4,17.8,17.1,13.9,11.4,82,76,68,29.92,29.77,36,3,37,0.00
2013-12-22,22.4,18.5,11.1,18.1,11.2,2.1,88,73,55,30.38,29.80,39,10,40,0.01
2013-12-23,12.9,8.4,4.1,2.1,-2.7,-7.0,71,60,43,30.66,30.37,36,9,37,0.00
2013-12-24,25.6,14.8,8.8,22.6,7.5,-2.8,89,73,56,30.58,30.14,60,8,61,0.00
2013-12-25,42.6,29.7,18.6,27.0,20.8,14.9,89,71,45,30.31,30.20,60,7,61,0.00
2013-12-26,50.7,33.3,23.0,22.1,19.4,17.2,79,59,28,30.28,30.07,33,2,34,0.00
2013-12-27,62.1,36.9,23.2,27.9,21.9,17.1,80,59,23,30.23,30.02,39,2,40,0.00
2013-12-28,59.3,41.8,28.8,29.6,25.9,20.0,74,56,25,30.06,29.68,63,5,64,0.00
2013-12-29,28.5,11.4,6.3,19.1,-6.9,-17.5,69,45,22,30.44,30.03,72,18,73,0.00
2013-12-30,41.3,19.8,6.9,25.0,1.8,-13.6,68,45,37,30.33,30.04,54,8,55,0.00
2013-12-31,44.9,22.0,11.4,24.8,11.8,5.0,79,66,43,30.29,29.94,42,6,43,0.00
2014-1-1,13.5,9.2,4.5,5.2,3.1,-1.7,81,76,69,30.45,30.08,39,8,40,0.04
2014-1-2,10.7,5.2,2.2,3.5,-0.8,-3.1,80,76,68,30.51,30.42,21,2,22,0.00